This is the latest recevied weather packets stored in our database for station/object W0AKO. If no packets are shown the sender has not sent any weather packets the latest 10 day(s).
| Time | Temp. | Humidity | Pressure | Rain* | Wind** | Luminosity | Snow |
|---|---|---|---|---|---|---|---|
| 1777099518 | 16.67° C | 10% | 1008.3 hPa | 0 mm | - | 0 W/m² | - |
| 1777099216 | 16.67° C | 10% | 1008.4 hPa | 0 mm | - | 0 W/m² | - |
| 1777098914 | 16.67° C | 10% | 1008.6 hPa | 0 mm | - | 0 W/m² | - |
| 1777098610 | 16.11° C | 10% | 1008.6 hPa | 0 mm | - | 0 W/m² | - |
| 1777098306 | 16.11° C | 10% | 1008.6 hPa | 0 mm | - | 0 W/m² | - |
| 1777098004 | 16.67° C | 10% | 1008.8 hPa | 0 mm | - | 0 W/m² | - |
| 1777097700 | 16.11° C | 10% | 1008.3 hPa | 0 mm | - | 0 W/m² | - |
| 1777097396 | 16.67° C | 10% | 1008.8 hPa | 0 mm | - | 0 W/m² | - |
| 1777097094 | 17.22° C | 10% | 1008.5 hPa | 0 mm | - | 0 W/m² | - |
| 1777096789 | 16.67° C | 10% | 1008.6 hPa | 0 mm | - | 0 W/m² | - |
| 1777096489 | 16.67° C | 10% | 1008.5 hPa | 0 mm | - | 0 W/m² | - |
| 1777096185 | 16.67° C | 10% | 1008.6 hPa | 0 mm | - | 0 W/m² | - |
| 1777095880 | 17.78° C | 10% | 1008.6 hPa | 0 mm | - | 0 W/m² | - |
| 1777095579 | 18.33° C | 10% | 1008.5 hPa | 0 mm | - | 0 W/m² | - |
| 1777095273 | 18.33° C | 10% | 1008.9 hPa | 0 mm | - | 0 W/m² | - |
| 1777094973 | 18.33° C | 10% | 1008.8 hPa | 0 mm | - | 0 W/m² | - |
| 1777094668 | 18.33° C | 10% | 1008.9 hPa | 0 mm | - | 0 W/m² | - |
| 1777094367 | 18.89° C | 10% | 1008.9 hPa | 0 mm | - | 0 W/m² | - |
| 1777094067 | 18.89° C | 10% | 1009.1 hPa | 0 mm | - | 0 W/m² | - |
| 1777093764 | 18.89° C | 10% | 1009.1 hPa | 0 mm | - | 0 W/m² | - |
| 1777093460 | 18.89° C | 10% | 1009 hPa | 0 mm | - | 0 W/m² | - |
| 1777093156 | 18.89° C | 10% | 1008.8 hPa | 0 mm | - | 0 W/m² | - |
| 1777092850 | 18.89° C | 10% | 1009 hPa | 0 mm | - | 0 W/m² | - |
* Rain latest hour (hover to see other rain measurements)
** Current wind speed in m/s (hover to see current wind gust speed)